TimeEDT,TemperatureF,Dew PointF,Humidity,Sea Level PressureIn,VisibilityMPH,Wind Direction,Wind SpeedMPH,Gust SpeedMPH,PrecipitationIn,Events,Conditions,WindDirDegrees,DateUTC
12:15 AM,69.8,66.2,88,30.21,10.0,South,4.6,-,N/A,,Mostly Cloudy,180,2013-06-23 04:15:00
12:35 AM,69.8,64.4,83,30.22,10.0,South,4.6,-,N/A,,Mostly Cloudy,180,2013-06-23 04:35:00
12:55 AM,69.8,66.2,88,30.22,10.0,South,4.6,-,N/A,,Scattered Clouds,190,2013-06-23 04:55:00
1:15 AM,69.8,66.2,88,30.22,10.0,Calm,Calm,-,N/A,,Clear,0,2013-06-23 05:15:00
1:35 AM,69.8,66.2,88,30.22,10.0,Calm,Calm,-,N/A,,Scattered Clouds,0,2013-06-23 05:35:00
1:55 AM,69.8,66.2,88,30.21,10.0,Calm,Calm,-,N/A,,Clear,0,2013-06-23 05:55:00
2:15 AM,68.0,66.2,94,30.20,10.0,SSE,5.8,-,N/A,,Clear,150,2013-06-23 06:15:00
2:35 AM,68.0,66.2,94,30.20,10.0,SSE,3.5,-,N/A,,Clear,150,2013-06-23 06:35:00
2:55 AM,68.0,66.2,94,30.18,10.0,Calm,Calm,-,N/A,,Clear,0,2013-06-23 06:55:00
3:15 AM,64.4,64.4,100,30.18,10.0,Calm,Calm,-,N/A,,Scattered Clouds,0,2013-06-23 07:15:00
3:35 AM,64.4,64.4,100,30.18,10.0,Calm,Calm,-,N/A,,Clear,0,2013-06-23 07:35:00
3:55 AM,64.4,64.4,100,30.18,10.0,Calm,Calm,-,N/A,,Clear,0,2013-06-23 07:55:00
4:15 AM,64.4,64.4,100,30.19,10.0,Calm,Calm,-,N/A,,Clear,0,2013-06-23 08:15:00
4:35 AM,64.4,64.4,100,30.20,10.0,Calm,Calm,-,N/A,,Clear,0,2013-06-23 08:35:00
4:55 AM,64.4,64.4,100,30.20,10.0,Calm,Calm,-,N/A,,Scattered Clouds,0,2013-06-23 08:55:00
5:15 AM,64.4,64.4,100,30.20,3.0,Calm,Calm,-,N/A,,Scattered Clouds,0,2013-06-23 09:15:00
5:35 AM,64.4,64.4,100,30.20,3.0,Calm,Calm,-,N/A,,Clear,0,2013-06-23 09:35:00
5:55 AM,62.6,62.6,100,30.21,0.2,Calm,Calm,-,N/A,Fog,Fog,0,2013-06-23 09:55:00
6:15 AM,64.4,64.4,100,30.20,7.0,Calm,Calm,-,N/A,,Overcast,0,2013-06-23 10:15:00
6:35 AM,64.4,64.4,100,30.21,7.0,Calm,Calm,-,N/A,,Mostly Cloudy,0,2013-06-23 10:35:00
6:45 AM,66.2,66.2,100,30.21,7.0,Calm,Calm,-,N/A,,Mostly Cloudy,0,2013-06-23 10:45:00
7:45 AM,69.8,69.8,100,30.21,7.0,Calm,Calm,-,N/A,,Mostly Cloudy,0,2013-06-23 11:45:00
8:50 AM,71.6,69.8,94,30.23,-9999.0,Calm,Calm,-,N/A,,Mostly Cloudy,0,2013-06-23 12:50:00
10:50 AM,73.4,71.6,94,30.22,10.0,Calm,Calm,-,N/A,,Mostly Cloudy,0,2013-06-23 14:50:00
11:50 AM,78.8,71.6,78,30.21,10.0,Calm,Calm,-,N/A,,Mostly Cloudy,0,2013-06-23 15:50:00
12:50 PM,80.6,71.6,74,30.18,10.0,Calm,Calm,-,N/A,,Scattered Clouds,0,2013-06-23 16:50:00
1:56 PM,82.4,71.6,70,30.16,10.0,Calm,Calm,-,N/A,,Mostly Cloudy,0,2013-06-23 17:56:00
2:45 PM,84.2,69.8,62,30.15,10.0,Calm,Calm,-,N/A,,Mostly Cloudy,0,2013-06-23 18:45:00
3:45 PM,84.2,69.8,62,30.12,10.0,Variable,3.5,-,N/A,,Mostly Cloudy,0,2013-06-23 19:45:00
4:45 PM,86.0,69.8,58,30.11,10.0,South,4.6,-,N/A,,Scattered Clouds,180,2013-06-23 20:45:00
6:59 PM,84.2,69.8,62,30.10,10.0,South,6.9,-,N/A,,Clear,190,2013-06-23 22:59:00
7:50 PM,82.4,69.8,66,30.11,10.0,South,4.6,-,N/A,,Clear,190,2013-06-23 23:50:00
9:00 PM,77.0,69.8,78,30.11,10.0,Calm,Calm,-,N/A,,Clear,0,2013-06-24 01:00:00
9:20 PM,73.4,69.8,88,30.11,10.0,South,3.5,-,N/A,,Clear,170,2013-06-24 01:20:00
9:40 PM,71.6,69.8,94,30.12,10.0,Calm,Calm,-,N/A,,Clear,0,2013-06-24 01:40:00
10:00 PM,71.6,69.8,94,30.14,10.0,Calm,Calm,-,N/A,,Clear,0,2013-06-24 02:00:00
10:20 PM,73.4,69.8,88,30.15,10.0,Calm,Calm,-,N/A,,Clear,0,2013-06-24 02:20:00
10:40 PM,71.6,69.8,94,30.15,10.0,Calm,Calm,-,N/A,,Clear,0,2013-06-24 02:40:00
11:00 PM,71.6,69.8,94,30.14,10.0,Calm,Calm,-,N/A,,Clear,0,2013-06-24 03:00:00
11:20 PM,73.4,69.8,88,30.14,10.0,South,3.5,-,N/A,,Clear,180,2013-06-24 03:20:00
11:40 PM,71.6,69.8,94,30.15,10.0,Calm,Calm,-,N/A,,Clear,0,2013-06-24 03:40:00